This demonstration page uses our WeatherBlox Daily Observations layout. Learn more.

Left ArrowRight Arrow

39.01783, -85.05884

Hourly Observations for April 1, 2020

Temp ( °F °C ) Dew Point ( °F °C ) Humidity (%) Winds ( mph kmh ) Pressure ( in mb ) Visibility ( mi km ) Precip ( " mm )
12:52 am 00:52 Cloudy 42 5.6 37 2.8 82 82 NNW 10 17 29.90 1013 10 16 N/A
1:52 am 01:52 Cloudy 42 5.6 37 2.8 82 82 NNW 10 17 29.90 1013 9 14 N/A
2:52 am 02:52 Cloudy 42 5.6 37 2.8 82 82 NNW 13 20 29.90 1012 9 14 N/A
3:13 am 03:13 Cloudy 42 5.6 37 2.8 82 82 NNW 12 19 29.93 1013 9 14 N/A
3:52 am 03:52 Cloudy 42 5.6 37 2.8 82 82 NNW 10 17 29.90 1012 10 16 N/A
4:11 am 04:11 Cloudy with Drizzle 41 5 38 3.3 89 89 NNW 10 17 29.93 1013 4 6 0.00 0.00
4:41 am 04:41 Cloudy 41 5 37 2.8 86 86 NNW 10 17 29.93 1013 9 14 0.00 0.00
4:52 am 04:52 Cloudy 41 5 37 2.8 86 86 NNW 9 15 29.90 1013 9 14 0.00 0.00
5:52 am 05:52 Cloudy 41 5 37 2.8 86 86 NW 10 17 29.91 1013 10 16 N/A
6:44 am 06:44 Cloudy 42 5.6 37 2.8 82 82 NNW 10 17 29.96 1014 10 16 N/A
6:52 am 06:52 Cloudy 42 5.6 36 2.2 79 79 N 12 19 29.93 1014 10 16 N/A
7:06 am 07:06 Cloudy 42 5.6 36 2.2 79 79 NNW 12 19 29.97 1015 10 16 N/A
7:52 am 07:52 Cloudy 42 5.6 36 2.2 79 79 N 9 15 29.96 1014 10 16 N/A
8:52 am 08:52 Cloudy 42 5.6 36 2.2 79 79 N 10 17 29.98 1015 10 16 N/A
9:21 am 09:21 Cloudy 43 6.1 36 2.2 76 76 N 10 17 30.00 1016 10 16 N/A
9:52 am 09:52 Cloudy 43 6.1 37 2.8 80 80 N 12 19 30.00 1016 8 13 N/A
10:40 am 10:40 Cloudy 45 7.2 37 2.8 74 74 N 13 20 30.03 1017 10 16 N/A
10:52 am 10:52 Cloudy 46 7.8 38 3.3 73 73 N 10 17 30.01 1016 10 16 N/A
11:52 am 11:52 Cloudy 47 8.3 38 3.3 71 71 N 12 19 30.02 1017 10 16 N/A
12:52 pm 12:52 Cloudy 49 9.4 37 2.8 64 64 N 10 17 30.02 1017 10 16 N/A
1:33 pm 13:33 Cloudy 50 10 37 2.8 61 61 N 8 13 30.02 1017 10 16 N/A
1:52 pm 13:52 Cloudy 52 11.1 37 2.8 57 57 NW 12 19 30.01 1016 10 16 N/A
2:52 pm 14:52 Cloudy 53 11.7 36 2.2 52 52 N 10 17 30.01 1016 10 16 N/A
3:52 pm 15:52 Cloudy 52 11.1 36 2.2 55 55 NW 13 20 30.00 1016 10 16 N/A
4:52 pm 16:52 Cloudy 51 10.6 36 2.2 56 56 NW 14 22 30.02 1017 10 16 N/A
5:52 pm 17:52 Cloudy 51 10.6 36 2.2 56 56 NW 12 19 30.02 1017 10 16 N/A
6:52 pm 18:52 Cloudy 51 10.6 35 1.7 54 54 NNW 12 19 30.03 1017 10 16 N/A
7:52 pm 19:52 Cloudy 49 9.4 36 2.2 61 61 NW 8 13 30.04 1017 10 16 N/A
8:52 pm 20:52 Cloudy 49 9.4 36 2.2 61 61 NNW 7 11 30.06 1018 10 16 N/A
9:52 pm 21:52 Cloudy 48 8.9 37 2.8 66 66 WNW 3 6 30.08 1019 10 16 N/A
10:52 pm 22:52 Cloudy 48 8.9 37 2.8 66 66 NNW 6 9 30.08 1019 10 16 N/A
11:52 pm 23:52 Cloudy 47 8.3 37 2.8 69 69 NW 7 11 30.09 1019 10 16 N/A

Powered by AerisWeather